Location: Czekanka
(50.4925°N, 19.2643°E)
Time: 02:28:53
(UTC+00:00)

Cosmos 1869 - Pass Details

Date: 15 June 2024
Orbit: 490 x 526 km, 82.5° (Epoch: 22 July)

Event Time Altitude Azimuth Distance (km) Brightness Sun altitude
Rises 00:01:34 0° 351° (N) 2,590 7.9 -14.2°
Reaches altitude 10° 00:03:42 10° 354° (N) 1,699 6.9 -14.1°
Maximum altitude 00:07:24 69° 78° (ENE) 531 3.3 -13.9°
Enters shadow 00:10:06 17° 161° (SSE) 1,291 4.8 -13.7°
